Regional Weather Roundup
Issued by NWS

Home | Current Version | Previous Version | Graphics & Text | Print | Product List | Glossary On
Versions: 1 2 3 4 5 6 7 8 9 10 11 12 13 14 15 16 17 18 19 20 21 22 23 24 25 26 27 28 29 30 31 32 33 34 35 36 37 38 39 40 41 42 43 44 45 46 47 48 49 50
000
ASUS45 KPSR 102110
RWRAZ

ARIZONA HOURLY REGIONAL WEATHER ROUNDUP
NATIONAL WEATHER SERVICE PHOENIX AZ
200 PM MST SUN DEC 10 2017

NOTE: FAIR INDICATES FEW OR NO CLOUDS BELOW 12,000 FEET WITH NO
SIGNIFICANT WEATHER AND/OR OBSTRUCTIONS TO VISIBILITY.

AZZ001>003-036-102200-
NORTHWEST ARIZONA

CITY           SKY/WX    TMP DP  RH WIND       PRES   REMARKS
BULLHEAD CITY  MOSUNNY   70   5   8 N30G39    30.25F
KINGMAN        MOSUNNY   61   8  12 N12       30.35F
$$

AZZ004>008-015-016-018-102200-
NORTH CENTRAL ARIZONA

CITY           SKY/WX    TMP DP  RH WIND       PRES   REMARKS
GRAND CANYON   SUNNY     55  -7   7 NE15      30.47F
WILLIAMS       MOSUNNY   59 -18   4 SE10      30.41F
PRESCOTT       MOSUNNY   61   3  10 N5        30.37F
FLAGSTAFF      MOSUNNY   50  -8   9 NE13      30.47F
PAYSON         PTSUNNY   61  -2   8 VRB6G13   30.36F
PAGE           SUNNY     47  14  26 E3        30.50F
$$

AZZ009>014-017-102200-
NORTHEAST ARIZONA

CITY           SKY/WX    TMP DP  RH WIND       PRES   REMARKS
WINSLOW        MOSUNNY   48   4  16 VRB5      30.47F
SAINT JOHNS    MOSUNNY   53   7  15 N7        30.42F
WINDOW ROCK    SUNNY     56 -11   6 VRB3      30.46F
SHOW LOW       PTSUNNY   46   5  18 VRB7      30.46F
$$

AZZ540-542>544-546-548-102200-
GREATER PHOENIX AREA

CITY           SKY/WX    TMP DP  RH WIND       PRES   REMARKS
PHOENIX        PTSUNNY   77   9   7 NE14      30.17F
BUCKEYE        PTSUNNY   77  75  94 E15G22    30.17F
GLENDALE       CLOUDY    79  10   7 NE10G21   30.19F
DEER VALLEY    CLOUDY    76   4   6 E8        30.18F
SCOTTSDALE     CLOUDY    77  10   7 E15G28    30.20F
MESA-FALCON    PTSUNNY   73  12   9 NE15      30.19F
MESA-GATEWAY     N/A     79   7   6 E18G24    30.19F
CHANDLER       SUNNY     77  14   9 MISG      30.18F
$$

AZZ539-553-102200-
SOUTHWEST MARICOPA COUNTY AND PINAL COUNTY

CITY           SKY/WX    TMP DP  RH WIND       PRES   REMARKS
CASA GRANDE    NOT AVBL
GILA BEND      PTSUNNY   75  10   8 E12       30.15F
$$

AZZ503-504-507>509-102200-
SOUTHEAST ARIZONA

CITY           SKY/WX    TMP DP  RH WIND       PRES   REMARKS
TUCSON         PTSUNNY   73  15  11 SE20G31   30.20F
DAVIS-MONTHAN  PTSUNNY   72  15  11 E10       30.18F
RYAN FIELD     SUNNY     72  14  11 E16G26    30.20F
NOGALES        PTSUNNY   69   9   9 E8G18     30.22F
SIERRA VISTA   CLOUDY    60   9  13 E8        30.31F
DOUGLAS        CLOUDY    62  13  14 E20       30.29F
SAFFORD        MOSUNNY   63  11  13 S12       30.34F
$$

AZZ532-102200-
SOUTHWEST ARIZONA

CITY           SKY/WX    TMP DP  RH WIND       PRES   REMARKS
YUMA           CLOUDY    73  16  11 N13       30.14F
$$

CAZ041-043-047-048-061-525>527-560>570-102200-
SOUTHERN CALIFORNIA

CITY           SKY/WX    TMP DP  RH WIND       PRES   REMARKS
DOWNTOWN L.A.  PTSUNNY   81  14   8 CALM      30.10F
L.A. AIRPORT   PTSUNNY   84  15   7 N5        30.10F
SAN DIEGO      CLOUDY    76  28  17 NW8       30.09F
BURBANK        PTSUNNY   80  20  10 CALM      30.12F
ONTARIO        PTSUNNY   84   2   4 NE12G25   30.12F
RIVERSIDE      CLOUDY    80  10   7 NE10G20   30.14F
PALM SPRINGS   MOSUNNY   81   8   6 S5        30.20F
EL CENTRO NAS  CLOUDY    78  15   9 N10       30.18F
IMPERIAL       CLOUDY    77  16  10 N10       30.16F
BLYTHE         PTSUNNY   73  19  13 VRB7      30.20F
NEEDLES        PTSUNNY   72   6   7 N22       30.26F
$$

NVZ020-UTZ003-102200-
SOUTHERN NEVADA-UTAH

CITY           SKY/WX    TMP DP  RH WIND       PRES   REMARKS
LAS VEGAS      PTSUNNY   62   6  11 CALM      30.35F
SALT LAKE CITY SUNNY     40  23  50 NW5       30.60F
$$

NMZ009-TXZ055-102200-
NEW MEXICO-WEST TEXAS

CITY           SKY/WX    TMP DP  RH WIND       PRES   REMARKS
ALBUQUERQUE    MOSUNNY   53   2  12 CALM      30.46F
EL PASO        PTSUNNY   57  21  24 CALM      30.42F
$$


........................KEY........................
SKY/WX - SKY CONDITION/WEATHER
TMP    - TEMPERATURE IN FAHRENHEIT
DP     - DEW POINT IN FAHRENHEIT
RH     - RELATIVE HUMIDITY IN PERCENT
WIND   - DIRECTION AND SPEED IN MILES PER HOUR (MPH)
VRB    - VARIABLE WIND DIRECTION
PRES   - MEAN SEA LEVEL PRESSURE IN INCHES OF MERCURY
         F - FALLING PRESSURE   R - RISING PRESSURE
         S - STEADY PRESSURE
VSB    - VISIBILITY IN MILES
HX     - HEAT INDEX IN FAHRENHEIT
WCI    - WIND CHILL INDEX IN FAHRENHEIT
TC     - TEMPERATURE IN CELSIUS WHICH IS ALSO KNOWN AS
         TEMPERATURE IN CENTIGRADE
AFB    - AIR FORCE BASE
         LUKE AFB IS LUKE AIR FORCE BASE
         DAVIS-MONTHAN IS DAVIS-MONTHAN AIR FORCE BASE
NAS    - NAVAL AIR STATION
         EL CENTRO NAS IS EL CENTRO NAVAL AIR STATION
N/A    - NOT AVAILABLE




USA.gov is the U.S. government's official web portal to all federal, state and local government web resources and services.